Location: Unspecified
(40.7945°N, 0.0000°E)
Time: 02:05:15
(UTC+00:00)

Altair - Pass Details

Date: 30 January 2021
Orbit: 1501 x 1682 km, 47.2° (Epoch: 01 March)

Event Time Altitude Azimuth Distance (km) Brightness Sun altitude
Rises 06:36:10 0° 280° (W) 4,887 - -7.2°
Exits shadow 06:38:35 - 283° (WNW) 4,154 9.1 -6.8°
Reaches altitude 10° 06:39:22 10° 284° (WNW) 3,917 8.9 -6.6°
Maximum altitude 06:49:22 61° 4° (N) 1,870 7.9 -4.8°
Drops below altitude 10° 06:59:25 10° 84° (E) 3,935 10.9 -3.0°
Sets 07:02:39 0° 88° (E) 4,911 11.6 -2.5°
